Location: Marengo
(51.4813°N, 109.7825°W)
Time: 00:34:32
(UTC+00:00)

BlueWalker 3 - Pass Details

Date: 07 December 2022
Orbit: 499 x 517 km, 53.2° (Epoch: 26 January)

Event Time Altitude Azimuth Distance (km) Brightness Sun altitude
Rises 00:10:25 0° 280° (W) 2,637 6.6 -8.7°
Reaches altitude 10° 00:12:39 10° 283° (WNW) 1,745 5.5 -9.0°
Maximum altitude 00:16:35 71° 8° (N) 548 2.0 -9.6°
Enters shadow 00:20:15 12° 92° (E) 1,630 4.0 -10.1°
